TimeCST,TemperatureF,Dew PointF,Humidity,Sea Level PressureIn,VisibilityMPH,Wind Direction,Wind SpeedMPH,Gust SpeedMPH,PrecipitationIn,Events,Conditions,WindDirDegrees,DateUTC
12:15 AM,34.2,27.7,77,30.22,10.0,SSW,8.1,-,N/A,,Clear,210,2011-12-25 06:15:00
12:35 AM,33.4,27.1,78,30.21,10.0,SSW,5.8,-,N/A,,Clear,210,2011-12-25 06:35:00
12:55 AM,33.1,27.0,78,30.20,10.0,SSW,6.9,-,N/A,,Clear,210,2011-12-25 06:55:00
1:15 AM,34.2,27.5,77,30.19,10.0,SSW,9.2,-,N/A,,Clear,200,2011-12-25 07:15:00
1:35 AM,35.6,27.9,73,30.19,10.0,SSW,10.4,-,N/A,,Clear,210,2011-12-25 07:35:00
1:55 AM,36.0,27.9,72,30.19,10.0,SSW,11.5,-,N/A,,Clear,210,2011-12-25 07:55:00
2:15 AM,36.1,27.9,72,30.19,10.0,SSW,10.4,-,N/A,,Clear,210,2011-12-25 08:15:00
2:35 AM,36.5,27.9,71,30.18,10.0,SSW,10.4,-,N/A,,Clear,210,2011-12-25 08:35:00
2:55 AM,37.0,27.5,68,30.18,10.0,SW,11.5,17.3,N/A,,Clear,220,2011-12-25 08:55:00
3:15 AM,37.4,27.1,66,30.18,10.0,SW,12.7,18.4,N/A,,Clear,220,2011-12-25 09:15:00
3:35 AM,36.9,27.1,68,30.17,10.0,SW,12.7,-,N/A,,Clear,220,2011-12-25 09:35:00
3:55 AM,36.7,27.3,69,30.16,10.0,SW,10.4,16.1,N/A,,Clear,220,2011-12-25 09:55:00
4:15 AM,36.7,27.1,68,30.16,10.0,SW,9.2,-,N/A,,Clear,220,2011-12-25 10:15:00
4:35 AM,36.1,27.1,70,30.16,10.0,SW,10.4,-,N/A,,Clear,220,2011-12-25 10:35:00
4:55 AM,35.6,27.0,71,30.16,10.0,SSW,10.4,-,N/A,,Clear,210,2011-12-25 10:55:00
5:15 AM,35.4,26.6,70,30.16,10.0,SW,10.4,-,N/A,,Clear,220,2011-12-25 11:15:00
5:35 AM,34.7,26.4,72,30.15,10.0,SW,9.2,-,N/A,,Clear,220,2011-12-25 11:35:00
5:55 AM,34.5,26.2,72,30.15,10.0,SSW,10.4,-,N/A,,Clear,210,2011-12-25 11:55:00
6:15 AM,34.7,26.1,71,30.15,10.0,SW,9.2,-,N/A,,Clear,220,2011-12-25 12:15:00
6:35 AM,34.7,25.7,70,30.16,10.0,WSW,10.4,-,N/A,,Clear,250,2011-12-25 12:35:00
6:55 AM,34.3,25.5,70,30.17,10.0,SW,8.1,-,N/A,,Clear,230,2011-12-25 12:55:00
7:15 AM,34.5,24.8,68,30.17,10.0,WSW,9.2,-,N/A,,Clear,250,2011-12-25 13:15:00
7:35 AM,33.8,25.2,71,30.17,10.0,WSW,10.4,-,N/A,,Clear,240,2011-12-25 13:35:00
7:55 AM,35.2,24.8,66,30.18,10.0,West,11.5,-,N/A,,Clear,260,2011-12-25 13:55:00
8:15 AM,35.4,25.5,67,30.19,10.0,WSW,12.7,-,N/A,,Clear,250,2011-12-25 14:15:00
8:35 AM,36.9,25.7,64,30.20,10.0,WSW,12.7,-,N/A,,Clear,250,2011-12-25 14:35:00
8:55 AM,38.3,25.7,61,30.21,10.0,West,15.0,23.0,N/A,,Clear,270,2011-12-25 14:55:00
9:15 AM,38.8,25.7,59,30.23,10.0,West,16.1,23.0,N/A,,Clear,270,2011-12-25 15:15:00
9:35 AM,39.4,26.1,59,30.24,10.0,West,15.0,21.9,N/A,,Clear,270,2011-12-25 15:35:00
9:55 AM,40.1,26.2,58,30.25,10.0,West,18.4,23.0,N/A,,Clear,270,2011-12-25 15:55:00
10:15 AM,41.0,26.6,57,30.26,10.0,West,18.4,23.0,N/A,,Clear,270,2011-12-25 16:15:00
10:35 AM,42.1,26.8,55,30.26,10.0,West,16.1,20.7,N/A,,Clear,270,2011-12-25 16:35:00
10:55 AM,42.4,27.1,55,30.26,10.0,WNW,17.3,23.0,N/A,,Clear,290,2011-12-25 16:55:00
11:15 AM,42.8,27.0,54,30.25,10.0,West,16.1,25.3,N/A,,Clear,280,2011-12-25 17:15:00
11:35 AM,44.1,27.5,52,30.26,10.0,WNW,15.0,23.0,N/A,,Clear,290,2011-12-25 17:35:00
11:55 AM,44.8,28.0,52,30.25,10.0,WNW,16.1,24.2,N/A,,Clear,290,2011-12-25 17:55:00
12:15 PM,45.0,27.5,50,30.25,10.0,West,17.3,23.0,N/A,,Clear,280,2011-12-25 18:15:00
12:35 PM,45.5,27.5,49,30.25,10.0,West,17.3,20.7,N/A,,Clear,280,2011-12-25 18:35:00
12:55 PM,46.0,27.9,49,30.25,10.0,West,16.1,20.7,N/A,,Clear,280,2011-12-25 18:55:00
1:15 PM,46.4,28.0,49,30.26,10.0,West,13.8,24.2,N/A,,Clear,280,2011-12-25 19:15:00
1:35 PM,46.4,27.7,48,30.25,10.0,West,15.0,20.7,N/A,,Clear,280,2011-12-25 19:35:00
1:55 PM,46.8,27.7,47,30.25,10.0,West,16.1,19.6,N/A,,Clear,270,2011-12-25 19:55:00
2:15 PM,46.9,26.6,45,30.25,10.0,West,16.1,-,N/A,,Clear,280,2011-12-25 20:15:00
2:35 PM,46.8,25.7,44,30.26,10.0,West,15.0,20.7,N/A,,Clear,280,2011-12-25 20:35:00
2:55 PM,46.8,25.7,44,30.27,10.0,WNW,11.5,-,N/A,,Clear,290,2011-12-25 20:55:00
3:15 PM,46.6,26.8,46,30.27,10.0,West,11.5,-,N/A,,Clear,280,2011-12-25 21:15:00
3:35 PM,45.9,25.9,46,30.27,10.0,WNW,8.1,16.1,N/A,,Clear,290,2011-12-25 21:35:00
3:55 PM,45.0,26.1,48,30.28,10.0,West,8.1,-,N/A,,Clear,280,2011-12-25 21:55:00
4:15 PM,42.6,27.3,55,30.29,10.0,West,6.9,-,N/A,,Clear,260,2011-12-25 22:15:00
4:35 PM,39.6,27.9,63,30.29,10.0,West,5.8,-,N/A,,Clear,270,2011-12-25 22:35:00
4:55 PM,38.3,27.5,65,30.31,10.0,WSW,6.9,-,N/A,,Clear,240,2011-12-25 22:55:00
5:15 PM,38.8,26.6,61,30.31,10.0,WSW,6.9,-,N/A,,Clear,250,2011-12-25 23:15:00
5:35 PM,37.6,27.1,66,30.32,10.0,WSW,8.1,-,N/A,,Clear,250,2011-12-25 23:35:00
5:55 PM,37.4,26.8,66,30.32,10.0,WSW,5.8,-,N/A,,Clear,250,2011-12-25 23:55:00
6:15 PM,36.3,26.8,68,30.33,10.0,West,6.9,-,N/A,,Clear,270,2011-12-26 00:15:00
6:35 PM,35.6,26.6,70,30.33,10.0,West,6.9,-,N/A,,Clear,270,2011-12-26 00:35:00
6:55 PM,33.3,26.2,75,30.33,10.0,West,6.9,-,N/A,,Clear,270,2011-12-26 00:55:00
7:15 PM,34.0,26.2,73,30.34,10.0,West,6.9,-,N/A,,Clear,260,2011-12-26 01:15:00
7:35 PM,35.1,25.9,69,30.35,10.0,WSW,4.6,-,N/A,,Clear,250,2011-12-26 01:35:00
7:55 PM,35.1,25.9,69,30.34,10.0,West,3.5,-,N/A,,Clear,280,2011-12-26 01:55:00
8:15 PM,34.7,26.1,71,30.34,10.0,Calm,Calm,-,N/A,,Clear,0,2011-12-26 02:15:00
8:35 PM,31.6,26.1,80,30.34,10.0,Calm,Calm,-,N/A,,Clear,0,2011-12-26 02:35:00
8:55 PM,32.2,26.1,78,30.34,10.0,Calm,Calm,-,N/A,,Clear,0,2011-12-26 02:55:00
9:15 PM,33.4,25.9,74,30.34,10.0,West,3.5,-,N/A,,Clear,280,2011-12-26 03:15:00
9:35 PM,32.0,25.3,76,30.34,10.0,WSW,3.5,-,N/A,,Clear,250,2011-12-26 03:35:00
9:55 PM,30.9,23.9,75,30.34,10.0,Calm,Calm,-,N/A,,Clear,0,2011-12-26 03:55:00
10:15 PM,29.7,25.0,83,30.35,10.0,Calm,Calm,-,N/A,,Clear,0,2011-12-26 04:15:00
10:35 PM,30.6,25.5,82,30.35,10.0,SW,4.6,-,N/A,,Clear,220,2011-12-26 04:35:00
10:55 PM,30.2,24.4,79,30.34,10.0,SSW,3.5,-,N/A,,Clear,210,2011-12-26 04:55:00
11:15 PM,32.0,25.0,75,30.34,10.0,WSW,3.5,-,N/A,,Clear,240,2011-12-26 05:15:00
11:35 PM,32.0,25.2,76,30.35,10.0,WSW,3.5,-,N/A,,Clear,240,2011-12-26 05:35:00
11:55 PM,32.9,25.2,73,30.34,10.0,Calm,Calm,-,N/A,,Clear,0,2011-12-26 05:55:00